Location: Rioux
(40.7500°S, 175.7500°E)
Time: 10:22:51
(UTC+00:00)

Meteor 1-20 Rocket - Pass Details

Date: 12 June 2024
Orbit: 818 x 891 km, 81.2° (Epoch: 20 July)

Event Time Altitude Azimuth Distance (km) Brightness Sun altitude
Exits shadow 17:23:49 35° 195° (SSW) 1,355 5.0 -24.7°
Maximum altitude 17:26:19 81° 278° (W) 877 4.1 -24.2°
Drops below altitude 10° 17:32:02 10° 4° (N) 2,509 6.8 -23.2°
Sets 17:34:28 0° 5° (N) 3,448 7.6 -22.7°
